Latest Coastal Weather Observations for Northern Endeavour (near 10.5S 126E)

IDD60701

Issued at 7:11 pm CST Sunday 31 July 2016 (issued every 10 minutes, with the page automatically refreshed every 10 minutes)

About coastal observations | Map of coastal stations | Coastal observations for NT | Marine services | Other Formats
Station Details ID: 200212 Name: NORTHERN ENDEAVOUR Lat: -10.61 Lon: 125.98 Height: 16.0 m
Data from the previous 72 hours. | See also: Recent months for locations in Northern Territory
Date/Time
CST
Temp
°C
Wind Pressure Rain since
9am
mm
Weather Cloud Vis
km
Sea
Height
m
Swell
Dir  Spd
kts
Gust
kts
hPa Trend Height
m
Period
s
Dir
31/07:00pm 28.5 S 11 13 1011.7 - - - - 10 - - - -
31/06:50pm 28.8 SSE 10 13 1011.5 - - - - 10 - - - -
31/06:40pm 29.4 SSE 11 14 1011.5 - - - - 10 - - - -
31/06:30pm 30.1 SSE 10 12 1011.5 - - - - 10 - - - -
31/06:20pm 30.4 SSE 11 13 1011.4 - - - - 10 - - - -
31/06:10pm 30.4 SSE 11 13 1011.2 - - - - 10 - - - -
31/06:00pm 30.5 SSE 8 12 1011.2 - - - - 10 - - - -
31/05:50pm 30.7 SSE 9 10 1011.0 - - - - 10 - - - -
31/05:40pm 30.5 SSE 9 13 1010.9 - - - - 10 - - - -
31/05:30pm 30.5 SSE 8 10 1011.0 - - - - 10 - - - -
31/05:20pm 30.7 SSE 8 12 1011.0 - - - - 10 - - - -
31/05:10pm 30.3 SSE 8 11 1011.0 - - - Partly cloudy 10 - - - -
31/05:00pm 30.5 SSE 7 8 1011.0 - - - Partly cloudy 10 - - - -
31/04:50pm 30.8 SSE 7 13 1011.0 - - - Partly cloudy 10 - - - -
31/04:40pm 30.8 SSE 7 13 1011.0 - - - - 10 - - - -
31/04:30pm 31.0 SE 7 9 1011.0 - - - - 10 - - - -
31/04:20pm 31.0 SE 7 11 1010.9 - - - - 10 - - - -
31/04:10pm 31.9 SE 8 9 1010.9 - - - - 10 - - - -
31/04:00pm 30.2 SSE 6 12 1010.8 - - - - 10 - - - -
31/03:50pm 31.5 SE 7 11 1010.9 - - - - 10 - - - -
31/03:40pm 31.1 SSE 7 8 1010.9 - - - - 10 - - - -
31/03:30pm 30.9 SSE 6 12 1010.9 - - - - 10 - - - -
31/03:20pm 30.4 SSE 6 11 1011.0 - - - - 10 - - - -
31/03:10pm 30.4 S 7 6 1011.2 - - - - 10 - - - -
31/03:00pm 31.4 SSE 8 9 1011.3 - - - - 10 - - - -
31/02:50pm 31.7 SSE 8 12 1011.4 - - - - 10 - - - -
31/02:40pm 30.4 SSE 6 12 1011.5 - - - - 10 - - - -
31/02:30pm 31.2 SE 7 11 1011.6 - - - - 10 - - - -
31/02:20pm 30.7 SSE 7 10 1011.6 - - - - 10 - - - -
31/02:10pm 31.3 SSE 9 10 1011.6 - - - - 10 - - - -
31/02:00pm 31.3 SSE 9 12 1011.7 - - - - 10 - - - -
31/01:50pm 30.6 SE 8 8 1011.7 - - - - 10 - - - -
31/01:40pm 31.2 SSE 8 11 1011.8 - - - - 10 - - - -
31/01:30pm 31.3 SE 8 11 1012.1 - - - - 10 - - - -
31/01:20pm 30.9 SSE 7 8 1012.2 - - - - 10 - - - -
31/01:10pm 30.7 SE 6 8 1012.3 - - - - 10 - - - -
31/01:00pm 30.8 SE 7 8 1012.5 - - - - 10 - - - -
31/12:50pm 30.5 SE 7 8 1012.6 - - - - 10 - - - -
31/12:40pm 30.0 SE 7 8 1012.7 - - - - 10 - - - -
31/12:30pm 29.6 SE 6 7 1012.8 - - - - 10 - - - -
31/12:20pm 29.5 SE 6 7 1012.9 - - - - 10 - - - -
31/12:10pm 29.9 SE 6 6 1013.0 - - - - 10 - - - -
31/12:00pm 29.2 SE 5 7 1013.1 - - - - 10 - - - -
31/11:50am 29.9 SE 5 5 1013.1 - - - - 10 - - - -
31/11:40am 29.8 SE 6 7 1013.2 - - - - 10 - - - -
31/11:30am 30.0 SE 7 8 1013.3 - - - - 10 - - - -
31/11:20am 30.2 SSE 8 8 1013.4 - - - - 10 - - - -
31/11:10am 29.6 SE 9 10 1013.5 - - - - 10 - - - -
31/11:00am 30.1 SSE 9 11 1013.5 - - - - 10 - - - -
31/10:50am 30.0 SSE 9 11 1013.6 - - - - 10 - - - -
31/10:40am 29.5 SE 8 11 1013.7 - - - - 10 - - - -
31/10:30am 29.2 SE 8 9 1013.7 - - - - 10 - - - -
31/10:20am 28.1 SE 8 8 1013.7 - - - - 10 - - - -
31/10:10am 28.5 SE 7 8 1013.7 - - - - 10 - - - -
31/10:00am 29.2 SE 8 8 1013.6 - - - - 10 - - - -
31/09:50am 29.2 SSE 8 10 1013.5 - - - - 10 - - - -
31/09:40am 29.3 SSE 8 10 1013.5 - - - - 10 - - - -
31/09:30am 29.1 SSE 8 9 1013.4 - - - - 10 - - - -
31/09:20am 29.0 SE 8 10 1013.3 - - - - 10 - - - -
31/09:10am 28.4 SE 8 8 1013.3 - - - - 10 - - - -
31/09:00am 28.7 SSE 8 8 1013.1 - - - - 10 - - - -
31/08:50am 28.3 SE 7 7 1013.0 - - - - 10 - - - -
31/08:40am 28.2 SE 8 9 1013.0 - - - - 10 - - - -
31/08:30am 28.0 SE 8 10 1012.9 - - - - 10 - - - -
31/08:20am 28.1 SE 7 9 1012.8 - - - - 10 - - - -
31/08:10am 27.6 SSE 8 11 1012.8 - - - - 10 - - - -
31/08:00am 27.0 SE 7 10 1012.7 - - - - 10 - - - -
31/07:50am 26.8 SE 6 8 1012.6 - - - - 10 - - - -
31/07:40am 26.5 SE 6 10 1012.5 - - - - 10 - - - -
31/07:30am 26.2 SE 7 9 1012.4 - - - - 10 - - - -
31/07:20am 26.2 SE 6 9 1012.3 - - - - 10 - - - -
31/07:10am 26.1 SE 7 7 1012.3 - - - - 10 - - - -
31/07:00am 26.2 SE 7 9 1012.2 - - - - 10 - - - -
31/06:50am 26.2 SE 7 7 1012.2 - - - - 10 - - - -
31/06:40am 26.1 SE 7 9 1012.2 - - - - 10 - - - -
31/06:30am 26.2 SE 7 7 1012.1 - - - - 10 - - - -
31/06:20am 26.1 SE 7 8 1012.1 - - - - 10 - - - -
31/06:10am 26.2 SE 7 8 1012.0 - - - - 10 - - - -
31/06:00am 26.2 SE 7 8 1012.0 - - - - 10 - - - -
31/05:50am 26.2 SE 8 8 1011.9 - - - - 10 - - - -
31/05:40am 26.3 SE 8 9 1011.9 - - - - 10 - - - -
31/05:30am 26.3 SE 6 9 1011.9 - - - - 10 - - - -
31/05:20am 26.3 ESE 6 7 1011.9 - - - - 10 - - - -
31/05:10am 26.3 SE 7 8 1011.9 - - - - 10 - - - -
31/05:00am 26.3 ESE 6 8 1011.9 - - - - 10 - - - -
31/04:50am 26.4 SE 7 8 1011.9 - - - - 10 - - - -
31/04:40am 26.4 SE 7 9 1012.0 - - - - 10 - - - -
31/04:30am 26.4 SE 7 8 1012.0 - - - Partly cloudy 10 - - - -
31/04:20am 26.4 SE 8 8 1011.9 - - - Partly cloudy 10 - - - -
31/04:10am 26.3 SE 8 8 1011.9 - - - Partly cloudy 10 - - - -
31/04:00am 26.4 SE 7 9 1011.9 - - - Partly cloudy 10 - - - -
31/03:50am 26.4 E 8 9 1012.0 - - - Partly cloudy 10 - - - -
31/03:40am 26.5 ESE 7 9 1012.0 - - - Partly cloudy 10 - - - -
31/03:30am 26.5 E 9 10 1012.1 - - - Partly cloudy 10 - - - -
31/03:20am 26.6 E 9 9 1012.0 - - - Partly cloudy 10 - - - -
31/03:10am 26.7 E 10 10 1012.0 - - - - 10 - - - -
31/03:00am 26.7 ESE 9 12 1012.0 - - - - 10 - - - -
31/02:50am 26.7 ESE 8 10 1012.0 - - - - 10 - - - -
31/02:40am 26.7 E 9 11 1012.1 - - - - 10 - - - -
31/02:30am 26.7 E 9 10 1012.3 - - - - 10 - - - -
31/02:20am 26.8 E 10 12 1012.4 - - - - 10 - - - -
31/02:10am 26.8 ESE 8 10 1012.4 - - - Partly cloudy 10 - - - -
31/02:00am 26.8 E 10 11 1012.5 - - - Partly cloudy 10 - - - -
31/01:50am 26.8 ESE 10 13 1012.6 - - - Partly cloudy 10 - - - -
31/01:40am 26.8 E 10 9 1012.7 - - - Partly cloudy 10 - - - -
31/01:30am 26.9 E 10 13 1012.8 - - - Partly cloudy 10 - - - -
31/01:20am 27.0 E 12 15 1012.8 - - - - 10 - - - -
31/01:10am 26.9 E 12 13 1012.8 - - - - 10 - - - -
31/01:00am 26.9 E 13 12 1012.9 - - - - 10 - - - -
31/12:50am 26.9 E 12 14 1012.9 - - - - 10 - - - -
31/12:40am 27.0 E 11 12 1013.0 - - - - 10 - - - -
31/12:30am 27.0 E 12 14 1013.1 - - - Partly cloudy 10 - - - -
31/12:20am 27.0 E 13 12 1013.1 - - - Partly cloudy 10 - - - -
31/12:10am 27.1 E 14 15 1013.1 - - - Partly cloudy 10 - - - -
31/12:00am 27.0 E 13 16 1013.2 - - - Partly cloudy 10 - - - -
 
Date/Time
CST
Temp
°C
Wind Pressure Rain since
9am
mm
Weather Cloud Vis
km
Sea
Height
m
Swell
Dir  Spd
kts
Gust
kts
hPa Trend Height
m
Period
s
Dir
30/11:50pm 27.0 E 14 16 1013.1 - - - Partly cloudy 10 - - - -
30/11:40pm 27.0 E 13 15 1013.1 - - - Partly cloudy 10 - - - -
30/11:30pm 27.0 ESE 11 16 1013.1 - - - Partly cloudy 10 - - - -
30/11:20pm 27.0 E 14 13 1013.1 - - - Partly cloudy 10 - - - -
30/11:10pm 27.1 E 13 17 1013.1 - - - Partly cloudy 10 - - - -
30/11:00pm 27.1 E 13 13 1013.2 - - - Partly cloudy 10 - - - -
30/10:50pm 27.1 E 15 15 1013.2 - - - Partly cloudy 10 - - - -
30/10:40pm 27.1 E 14 15 1013.1 - - - Partly cloudy 10 - - - -
30/10:30pm 27.2 E 15 15 1013.1 - - - - 10 - - - -
30/10:20pm 27.2 E 15 15 1013.1 - - - Partly cloudy 10 - - - -
30/10:10pm 27.3 E 15 17 1013.1 - - - - 10 - - - -
30/10:00pm 27.5 E 15 17 1013.0 - - - - 10 - - - -
30/09:50pm 27.4 E 15 18 1012.9 - - - - 10 - - - -
30/09:40pm 27.4 E 14 17 1012.9 - - - - 10 - - - -
30/09:30pm 27.4 E 14 17 1012.8 - - - - 10 - - - -
30/09:20pm 27.4 E 13 16 1012.6 - - - - 10 - - - -
30/09:10pm 27.4 E 14 17 1012.5 - - - - 10 - - - -
30/09:00pm 27.4 E 14 17 1012.5 - - - - 10 - - - -
30/08:50pm 27.5 E 15 17 1012.5 - - - - 10 - - - -
30/08:40pm 27.4 E 14 17 1012.4 - - - - 10 - - - -
30/08:30pm 27.4 E 13 15 1012.3 - - - - 10 - - - -
30/08:20pm 27.5 E 15 17 1012.2 - - - - 10 - - - -
30/08:10pm 27.5 E 14 17 1012.1 - - - - 10 - - - -
30/08:00pm 27.6 ESE 12 17 1011.8 - - - - 10 - - - -
30/07:50pm 27.5 E 13 15 1011.8 - - - - 10 - - - -
30/07:40pm 27.6 ESE 11 18 1011.6 - - - - 10 - - - -
30/07:30pm 27.7 ESE 11 16 1011.7 - - - - 10 - - - -
30/07:20pm 27.7 SE 9 12 1011.5 - - - - 10 - - - -
30/07:10pm 27.7 ESE 10 14 1011.4 - - - - 10 - - - -
30/07:00pm 27.8 ESE 10 11 1011.4 - - - - 10 - - - -
30/06:50pm 27.9 ESE 9 11 1011.3 - - - - 10 - - - -
30/06:40pm 28.0 ESE 11 15 1011.3 - - - - 10 - - - -
30/06:30pm 28.1 ESE 11 13 1011.3 - - - - 10 - - - -
30/06:20pm 28.1 ESE 12 16 1011.2 - - - - 10 - - - -
30/06:10pm 28.3 ESE 10 14 1011.0 - - - - 10 - - - -
30/06:00pm 28.3 ESE 12 16 1011.0 - - - - 10 - - - -
30/05:50pm 28.4 E 15 17 1011.0 - - - - 10 - - - -
30/05:40pm 28.4 ESE 12 18 1010.8 - - - - 10 - - - -
30/05:30pm 28.6 ESE 12 15 1010.8 - - - - 10 - - - -
30/05:20pm 28.6 E 13 14 1010.8 - - - - 10 - - - -
30/05:10pm 28.7 E 14 16 1010.7 - - - - 10 - - - -
30/05:00pm 28.6 ESE 12 17 1010.6 - - - - 10 - - - -
30/04:50pm 28.7 ESE 12 18 1010.5 - - - - 10 - - - -
30/04:40pm 28.7 ESE 10 14 1010.4 - - - - 10 - - - -
30/04:30pm 28.5 ESE 9 11 1010.4 - - - - 10 - - - -
30/04:20pm 28.5 ESE 12 13 1010.4 - - - - 10 - - - -
30/04:10pm 29.0 SE 11 17 1010.5 - - - - 10 - - - -
30/04:00pm 28.8 ESE 13 12 1010.5 - - - - 10 - - - -
30/03:50pm 29.2 SE 13 16 1010.5 - - - - 10 - - - -
30/03:40pm 28.5 ESE 12 14 1010.6 - - - - 10 - - - -
30/03:30pm 29.2 ESE 12 14 1010.7 - - - - 10 - - - -
30/03:20pm 28.8 ESE 11 14 1010.7 - - - - 10 - - - -
30/03:10pm 28.7 ESE 11 13 1010.8 - - - - 10 - - - -
30/03:00pm 28.5 ESE 14 17 1010.9 - - - - 10 - - - -
30/02:50pm 28.6 ESE 12 17 1011.0 - - - - 10 - - - -
30/02:40pm 28.7 ESE 12 17 1011.2 - - - - 10 - - - -
30/02:30pm 28.7 ESE 11 16 1011.2 - - - - 10 - - - -
30/02:20pm 28.7 ESE 12 13 1011.3 - - - - 10 - - - -
30/02:10pm 28.6 ESE 11 15 1011.4 - - - - 10 - - - -
30/02:00pm 28.6 ESE 12 15 1011.5 - - - - 10 - - - -
30/01:50pm 28.8 ESE 12 17 1011.7 - - - - 10 - - - -
30/01:40pm 28.7 ESE 12 17 1011.8 - - - - 10 - - - -
30/01:30pm 28.9 SE 13 13 1011.9 - - - - 10 - - - -
30/01:20pm 29.2 SE 15 15 1012.1 - - - - 10 - - - -
30/01:10pm 29.7 SE 15 18 1012.2 - - - - 10 - - - -
30/01:00pm 29.1 SE 14 18 1012.4 - - - - 10 - - - -
30/12:50pm 29.1 SE 11 16 1012.6 - - - - 10 - - - -
30/12:40pm 29.2 SE 13 17 1012.7 - - - - 10 - - - -
30/12:30pm 29.0 SE 14 17 1012.9 - - - - 10 - - - -
30/12:20pm 29.2 SE 13 16 1013.1 - - - - 10 - - - -
30/12:10pm 28.8 SE 15 14 1013.2 - - - - 10 - - - -
30/12:00pm 29.6 SE 14 18 1013.4 - - - - 10 - - - -
30/11:50am 29.3 SE 17 18 1013.5 - - - - 10 - - - -
30/11:40am 30.0 SE 17 18 1013.5 - - - - 10 - - - -
30/11:30am 29.2 SE 16 18 1013.7 - - - - 10 - - - -
30/11:20am 28.8 SE 13 17 1013.7 - - - - 10 - - - -
30/11:10am 29.8 SSE 17 18 1013.8 - - - - 10 - - - -
30/11:00am 29.6 SE 17 18 1013.9 - - - - 10 - - - -
30/10:50am 29.1 SE 15 19 1013.9 - - - - 10 - - - -
30/10:40am 29.6 SE 16 19 1013.9 - - - - 10 - - - -
30/10:30am 29.7 SSE 17 19 1013.8 - - - - 10 - - - -
30/10:20am 29.7 SSE 17 18 1013.9 - - - - 10 - - - -
30/10:10am 29.2 SE 16 19 1013.9 - - - - 10 - - - -
30/10:00am 29.2 SE 16 18 1013.8 - - - - 10 - - - -
30/09:50am 28.8 SE 16 18 1013.7 - - - - 10 - - - -
30/09:40am 28.6 SE 14 16 1013.7 - - - - 10 - - - -
30/09:30am 28.8 SE 16 18 1013.6 - - - - 10 - - - -
30/09:20am 28.3 SE 13 15 1013.6 - - - - 10 - - - -
30/09:10am 28.3 SSE 15 17 1013.6 - - - - 10 - - - -
30/09:00am 28.3 SE 13 15 1013.6 - - - - 10 - - - -
30/08:50am 27.9 SE 14 14 1013.5 - - - - 10 - - - -
30/08:40am 28.0 SE 14 15 1013.4 - - - Partly cloudy 10 - - - -
30/08:30am 27.6 SE 10 14 1013.5 - - - - 10 - - - -
30/08:20am 27.2 SE 10 13 1013.4 - - - Partly cloudy 10 - - - -
30/08:10am 27.3 SE 11 14 1013.3 - - - Partly cloudy 10 - - - -
30/08:00am 26.8 SE 9 11 1013.2 - - - Partly cloudy 10 - - - -
30/07:50am 26.6 SE 10 12 1013.1 - - - - 10 - - - -
30/07:40am 26.5 SE 11 14 1013.1 - - - Partly cloudy 10 - - - -
30/07:30am 26.4 SSE 13 14 1012.9 - - - Partly cloudy 10 - - - -
30/07:20am 26.4 SE 12 14 1012.7 - - - Partly cloudy 10 - - - -
30/07:10am 26.4 SE 13 14 1012.6 - - - Partly cloudy 10 - - - -
30/07:00am 26.4 SSE 12 14 1012.5 - - - Partly cloudy 10 - - - -
30/06:50am 26.3 SSE 12 12 1012.3 - - - Partly cloudy 10 - - - -
30/06:40am 26.4 SSE 13 15 1012.2 - - - Partly cloudy 10 - - - -
30/06:30am 26.3 SSE 13 13 1012.1 - - - Partly cloudy 10 - - - -
30/06:20am 26.3 SSE 11 13 1012.0 - - - Partly cloudy 10 - - - -
30/06:10am 26.3 SSE 12 13 1012.1 - - - Partly cloudy 10 - - - -
30/06:00am 26.3 SSE 12 12 1012.0 - - - Partly cloudy 10 - - - -
30/05:50am 26.1 SSE 11 12 1011.9 - - - - 10 - - - -
30/05:40am 26.1 SSE 10 11 1012.0 - - - - 10 - - - -
30/05:30am 26.3 SSE 10 12 1012.0 - - - - 10 - - - -
30/05:20am 26.2 SSE 9 12 1012.0 - - - - 10 - - - -
30/05:10am 26.3 SSE 10 11 1012.0 - - - - 10 - - - -
30/05:00am 26.2 SSE 9 12 1012.0 - - - - 10 - - - -
30/04:50am 26.2 SE 10 12 1012.1 - - - - 10 - - - -
30/04:40am 26.2 SE 9 11 1012.1 - - - - 10 - - - -
30/04:30am 26.2 SE 10 12 1012.0 - - - Partly cloudy 10 - - - -
30/04:20am 26.2 SE 9 11 1012.0 - - - Partly cloudy 10 - - - -
30/04:10am 26.1 SE 9 8 1012.0 - - - Partly cloudy 10 - - - -
30/04:00am 26.2 SE 10 12 1012.0 - - - Partly cloudy 10 - - - -
30/03:50am 26.3 SE 10 13 1012.1 - - - - 10 - - - -
30/03:40am 26.2 SE 10 13 1012.1 - - - Partly cloudy 10 - - - -
30/03:30am 26.1 SE 9 9 1012.2 - - - - 10 - - - -
30/03:20am 26.2 SE 9 12 1012.3 - - - - 10 - - - -
30/03:10am 26.2 SE 10 10 1012.3 - - - - 10 - - - -
30/03:00am 26.2 SE 11 11 1012.4 - - - - 10 - - - -
30/02:50am 26.3 SE 12 14 1012.4 - - - - 10 - - - -
30/02:40am 26.2 SE 11 11 1012.4 - - - - 10 - - - -
30/02:30am 26.4 SE 11 14 1012.5 - - - - 10 - - - -
30/02:20am 26.2 SE 9 10 1012.7 - - - - 10 - - - -
30/02:10am 26.2 SE 10 14 1012.8 - - - - 10 - - - -
30/02:00am 26.3 SE 10 12 1012.9 - - - Partly cloudy 10 - - - -
30/01:50am 26.3 SE 11 12 1013.0 - - - Partly cloudy 10 - - - -
30/01:40am 26.2 SE 9 12 1013.2 - - - Partly cloudy 10 - - - -
30/01:30am 26.2 SE 9 12 1013.2 - - - - 10 - - - -
30/01:20am 26.3 SE 9 10 1013.1 - - - - 10 - - - -
30/01:10am 26.3 SE 10 13 1013.2 - - - - 10 - - - -
30/01:00am 26.3 ESE 10 12 1013.3 - - - - 10 - - - -
30/12:50am 26.4 SE 11 13 1013.2 - - - - 10 - - - -
30/12:40am 26.4 SE 10 15 1013.3 - - - - 10 - - - -
30/12:30am 26.4 SE 11 12 1013.4 - - - - 10 - - - -
30/12:20am 26.5 SE 12 14 1013.5 - - - - 10 - - - -
30/12:10am 26.4 SE 9 15 1013.6 - - - - 10 - - - -
30/12:00am 26.5 SE 11 14 1013.7 - - - - 10 - - - -
 
Date/Time
CST
Temp
°C
Wind Pressure Rain since
9am
mm
Weather Cloud Vis
km
Sea
Height
m
Swell
Dir  Spd
kts
Gust
kts
hPa Trend Height
m
Period
s
Dir
29/11:50pm 26.5 SE 12 13 1013.7 - - - - 10 - - - -
29/11:40pm 26.4 SE 11 14 1013.7 - - - - 10 - - - -
29/11:30pm 26.6 ESE 11 13 1013.7 - - - - 10 - - - -
29/11:20pm 26.6 SE 10 15 1013.7 - - - - 10 - - - -
29/11:10pm 26.6 SE 11 15 1013.8 - - - - 10 - - - -
29/11:00pm 26.6 ESE 11 14 1013.8 - - - - 10 - - - -
29/10:50pm 26.7 SE 11 14 1013.9 - - - Partly cloudy 10 - - - -
29/10:40pm 26.8 ESE 12 16 1013.9 - - - - 10 - - - -
29/10:30pm 26.9 SE 12 17 1014.0 - - - Partly cloudy 10 - - - -
29/10:20pm 26.9 ESE 11 16 1014.0 - - - Partly cloudy 10 - - - -
29/10:10pm 27.0 SE 12 15 1013.9 - - - Partly cloudy 10 - - - -
29/10:00pm 27.0 ESE 12 15 1013.9 - - - Partly cloudy 10 - - - -
29/09:50pm 27.0 ESE 13 15 1013.9 - - - - 10 - - - -
29/09:40pm 27.0 ESE 13 17 1013.9 - - - Partly cloudy 10 - - - -
29/09:30pm 27.0 ESE 16 15 1013.9 - - - Partly cloudy 10 - - - -
29/09:20pm 27.1 ESE 12 19 1013.7 - - - Partly cloudy 10 - - - -
29/09:10pm 27.1 ESE 15 19 1013.6 - - - Partly cloudy 10 - - - -
29/09:00pm 27.1 ESE 12 17 1013.5 - - - Partly cloudy 10 - - - -
29/08:50pm 27.1 ESE 15 17 1013.4 - - - Partly cloudy 10 - - - -
29/08:40pm 27.2 ESE 13 19 1013.3 - - - Partly cloudy 10 - - - -
29/08:30pm 27.2 ESE 14 17 1013.1 - - - Partly cloudy 10 - - - -
29/08:20pm 27.1 ESE 13 15 1013.0 - - - Partly cloudy 10 - - - -
29/08:10pm 27.2 ESE 12 18 1012.9 - - - Partly cloudy 10 - - - -
29/08:00pm 27.2 ESE 13 15 1012.8 - - - Partly cloudy 10 - - - -
29/07:50pm 27.2 ESE 14 16 1012.5 - - - Partly cloudy 10 - - - -
29/07:40pm 27.2 SE 13 17 1012.4 - - - Partly cloudy 10 - - - -
29/07:30pm 27.3 SE 13 20 1012.4 - - - Partly cloudy 10 - - - -
29/07:20pm 27.2 ESE 14 18 1012.4 - - - Partly cloudy 10 - - - -
29/07:10pm 27.2 ESE 14 19 1012.3 - - - - 10 - - - -
29/07:00pm 27.3 SE 14 18 1012.1 - - - Partly cloudy 10 - - - -
29/06:50pm 27.3 SE 13 15 1012.1 - - - Partly cloudy 10 - - - -
29/06:40pm 27.6 SE 13 17 1012.0 - - - Partly cloudy 10 - - - -
29/06:30pm 27.8 SE 14 19 1011.9 - - - - 10 - - - -
29/06:20pm 27.7 SE 11 16 1012.0 - - - - 10 - - - -
29/06:10pm 27.8 SE 13 15 1011.9 - - - - 10 - - - -
29/06:00pm 28.1 SE 15 20 1011.8 - - - - 10 - - - -
29/05:50pm 27.9 ESE 13 17 1011.8 - - - - 10 - - - -
29/05:40pm 28.2 SE 14 20 1011.8 - - - - 10 - - - -
29/05:30pm 28.0 ESE 12 16 1011.7 - - - - 10 - - - -
29/05:20pm 28.0 ESE 13 19 1011.7 - - - - 10 - - - -
29/05:10pm 28.2 ESE 14 19 1011.6 - - - - 10 - - - -
29/05:00pm 28.4 SE 14 16 1011.5 - - - - 10 - - - -
29/04:50pm 28.6 SE 15 17 1011.5 - - - - 10 - - - -
29/04:40pm 28.6 SE 13 15 1011.5 - - - - 10 - - - -
29/04:30pm 28.2 SE 14 13 1011.4 - - - - 10 - - - -
29/04:20pm 28.8 SE 16 19 1011.4 - - - - 10 - - - -
29/04:10pm 28.6 SE 14 18 1011.3 - - - - 10 - - - -
29/04:00pm 29.1 ESE 14 19 1011.2 - - - - 10 - - - -
29/03:50pm 28.9 ESE 14 17 1011.2 - - - - 10 - - - -
29/03:40pm 28.4 ESE 10 17 1011.3 - - - - 10 - - - -
29/03:30pm 28.8 ESE 15 15 1011.4 - - - - 10 - - - -
29/03:20pm 28.4 ESE 12 15 1011.6 - - - - 10 - - - -
29/03:10pm 28.5 ESE 11 14 1011.6 - - - - 10 - - - -
29/03:00pm 28.4 ESE 12 15 1011.6 - - - - 10 - - - -
29/02:50pm 29.1 ESE 14 19 1011.7 - - - - 10 - - - -
29/02:40pm 28.6 ESE 13 17 1011.8 - - - - 10 - - - -
29/02:30pm 29.1 ESE 15 18 1012.0 - - - - 10 - - - -
29/02:20pm 29.2 ESE 14 20 1012.2 - - - - 10 - - - -
29/02:10pm 28.6 ESE 15 20 1012.2 - - - - 10 - - - -
29/02:00pm 28.9 ESE 14 16 1012.4 - - - Partly cloudy 10 - - - -
29/01:50pm 29.0 ESE 14 16 1012.5 - - - - 10 - - - -
29/01:40pm 28.9 ESE 13 18 1012.6 - - - - 10 - - - -
29/01:30pm 29.0 ESE 13 18 1012.8 - - - - 10 - - - -
29/01:20pm 28.7 ESE 11 13 1012.9 - - - - 10 - - - -
29/01:10pm 28.5 ESE 11 18 1012.9 - - - - 10 - - - -
29/01:00pm 28.7 SE 12 15 1013.0 - - - - 10 - - - -
29/12:50pm 28.6 SE 11 15 1013.2 - - - Partly cloudy 10 - - - -
29/12:40pm 29.2 SE 14 15 1013.3 - - - Partly cloudy 10 - - - -
29/12:30pm 28.9 SE 13 16 1013.5 - - - Partly cloudy 10 - - - -
29/12:20pm 28.8 SE 12 13 1013.8 - - - - 10 - - - -
29/12:10pm 28.7 SE 12 14 1013.9 - - - - 10 - - - -
29/12:00pm 28.8 SE 14 17 1014.0 - - - - 10 - - - -
29/11:50am 29.3 SE 13 17 1014.0 - - - - 10 - - - -
29/11:40am 28.9 SE 15 18 1014.0 - - - - 10 - - - -
29/11:30am 29.4 SE 15 19 1014.1 - - - - 10 - - - -
29/11:20am 28.8 SE 15 16 1014.2 - - - - 10 - - - -
29/11:10am 29.3 SE 15 16 1014.3 - - - - 10 - - - -
29/11:00am 29.3 SE 13 16 1014.4 - - - - 10 - - - -
29/10:50am - SE 11 15 - - - - - - - - - -
29/10:40am - SE 13 16 - - - - - - - - - -
29/10:30am - SE 13 14 - - - - - - - - - -
29/10:20am - SE 13 13 - - - - - - - - - -
29/10:10am - SE 14 15 - - - - - - - - - -
29/10:00am - SE 13 16 - - - - - - - - - -
29/09:50am - SE 11 13 - - - - - - - - - -
29/09:40am - ESE 11 15 - - - - - - - - - -
29/09:30am - ESE 9 11 - - - - - - - - - -
29/09:20am - SE 10 13 - - - - - - - - - -
29/09:10am - SE 10 11 - - - - - - - - - -
29/09:00am - ESE 10 11 - - - - - - - - - -
29/08:50am - ESE 8 12 - - - - - - - - - -
29/08:40am - ESE 10 14 - - - - - - - - - -
29/08:30am - ESE 9 13 - - - - - - - - - -
29/08:20am - SE 10 12 - - - - - - - - - -
29/08:10am - ESE 10 12 - - - - - - - - - -
29/08:00am - ESE 10 9 - - - - - - - - - -
29/07:50am - SE 12 16 - - - - - - - - - -
29/07:40am - SE 12 15 - - - - - - - - - -
29/07:30am - ESE 10 13 - - - - - - - - - -
29/07:20am - E 11 11 - - - - - - - - - -
29/07:10am - ESE 9 11 - - - - - - - - - -
29/07:00am - E 8 9 - - - - - - - - - -
29/06:50am - E 9 12 - - - - - - - - - -
29/06:40am - ESE 7 9 - - - - - - - - - -
29/06:30am - SE 8 11 - - - - - - - - - -
29/06:20am - SE 9 11 - - - - - - - - - -
29/06:10am - SE 10 12 - - - - - - - - - -
29/06:00am - SE 9 11 - - - - - - - - - -
29/05:50am - SE 8 9 - - - - - - - - - -
29/05:40am - ESE 6 6 - - - - - - - - - -
29/05:30am - ESE 7 9 - - - - - - - - - -
29/05:20am - ESE 7 8 - - - - - - - - - -
29/05:10am - SE 9 12 - - - - - - - - - -
29/05:00am - ESE 9 11 - - - - - - - - - -
29/04:50am - SE 10 11 - - - - - - - - - -
29/04:40am - SE 10 12 - - - - - - - - - -
29/04:30am - SE 12 12 - - - - - - - - - -
29/04:20am - SE 11 14 - - - - - - - - - -
29/04:10am - SE 12 13 - - - - - - - - - -
29/04:00am - SE 12 14 - - - - - - - - - -
29/03:50am - SE 13 16 - - - - - - - - - -
29/03:40am - SE 13 15 - - - - - - - - - -
29/03:30am - SE 14 15 - - - - - - - - - -
29/03:20am - SE 13 15 - - - - - - - - - -
29/03:10am - SE 14 15 - - - - - - - - - -
29/03:00am - SE 14 17 - - - - - - - - - -
29/02:50am - SE 14 16 - - - - - - - - - -
29/02:40am - SE 15 15 - - - - - - - - - -
29/02:30am - SE 15 16 - - - - - - - - - -
29/02:20am - SE 14 18 - - - - - - - - - -
29/02:10am - SE 12 15 - - - - - - - - - -
29/02:00am - SE 15 16 - - - - - - - - - -
29/01:50am - SE 13 16 - - - - - - - - - -
29/01:40am - SE 15 16 - - - - - - - - - -
29/01:30am - SE 15 17 - - - - - - - - - -
29/01:20am - SE 14 16 - - - - - - - - - -
29/01:10am - SE 15 18 - - - - - - - - - -
29/01:00am - SE 15 18 - - - - - - - - - -
29/12:50am - SE 15 18 - - - - - - - - - -
29/12:40am - SE 13 15 - - - - - - - - - -
29/12:30am - SE 15 17 - - - - - - - - - -
29/12:20am - SE 13 21 - - - - - - - - - -
29/12:10am - SE 16 18 - - - - - - - - - -
29/12:00am - SE 18 21 - - - - - - - - - -
 
Date/Time
CST
Temp
°C
Wind Pressure Rain since
9am
mm
Weather Cloud Vis
km
Sea
Height
m
Swell
Dir  Spd
kts
Gust
kts
hPa Trend Height
m
Period
s
Dir
28/11:50pm - SE 15 19 - - - - - - - - - -
28/11:40pm - SE 13 17 - - - - - - - - - -
28/11:30pm - SE 13 19 - - - - - - - - - -
28/11:20pm - SE 13 17 - - - - - - - - - -
28/11:10pm - SE 13 19 - - - - - - - - - -
28/11:00pm - ESE 13 14 - - - - - - - - - -
28/10:50pm - ESE 15 17 - - - - - - - - - -
28/10:40pm - ESE 12 18 - - - - - - - - - -
28/10:30pm - ESE 13 16 - - - - - - - - - -
28/10:20pm - ESE 12 17 - - - - - - - - - -
28/10:10pm - SE 12 17 - - - - - - - - - -
28/10:00pm - SE 13 15 - - - - - - - - - -
28/09:50pm - SE 12 18 - - - - - - - - - -
28/09:40pm 26.5 SE 14 16 1015.0 - - - Partly cloudy 10 - - - -
28/09:30pm 26.5 ESE 17 19 1014.7 - - - Partly cloudy 10 - - - -
28/09:20pm 26.6 ESE 16 21 1014.5 - - - Partly cloudy 10 - - - -
28/09:10pm 26.6 ESE 17 19 1014.4 - - - Partly cloudy 10 - - - -
28/09:00pm 26.6 ESE 17 23 1014.3 - - - Partly cloudy 10 - - - -
28/08:50pm 26.6 ESE 17 22 1014.2 - - - Partly cloudy 10 - - - -
28/08:40pm 26.7 ESE 18 21 1014.0 - - - Partly cloudy 10 - - - -
28/08:30pm 26.7 ESE 18 20 1013.9 - - - Partly cloudy 10 - - - -
28/08:20pm 26.7 ESE 15 22 1013.6 - - - Partly cloudy 10 - - - -
28/08:10pm 26.7 ESE 19 22 1013.5 - - - Partly cloudy 10 - - - -
28/08:00pm 26.7 ESE 18 21 1013.3 - - - Partly cloudy 10 - - - -
28/07:50pm 26.8 ESE 19 21 1013.2 - - - Partly cloudy 10 - - - -
28/07:40pm 26.8 ESE 17 23 1013.1 - - - Partly cloudy 10 - - - -
28/07:30pm 26.8 ESE 19 24 1012.8 - - - Partly cloudy 10 - - - -
28/07:20pm 26.8 ESE 17 24 1012.7 - - - Partly cloudy 10 - - - -

Other Formats:

Comma delimited format used in spreadsheet applications
http://www.bom.gov.au/fwo/IDD60701/IDD60701.95100.axf

JavaScript Object Notation format (JSON) in row-major order
http://www.bom.gov.au/fwo/IDD60701/IDD60701.95100.json